User: anonymous   Login
Location: Unspecified
(0.0000°N, 0.0000°E)
Time: 10:34:18
(UTC+00:00)
Language:

MUOS 4 - Orbit

View from above orbital plane
View from above orbital plane
View from above satellite
View from above satellite

Ground track
Ground track

The orbit data is extracted from the following two-line orbital elements,

1 40887U 15044A   18163.98992603 0.00000000  00000-0  00000-0 0    09
2 40887   3.8788 332.5610 0053382   4.0638 356.0030  1.00270000    02
Epoch (UTC): 12 June 2018 23:45:29
Eccentricity: 0.0053382
inclination: 3.8788°
perigee height: 35561 km
apogee height: 36012 km
right ascension of ascending node: 332.5610°
argument of perigee: 4.0638°
revolutions per day: 1.00270000
mean anomaly at epoch: 356.0030°
orbit number at epoch: 0

The dashed part of the orbit path shows where the satellite is in the earth's shadow,  

DLR